Tracking 29493 objects as of 8-Sep-2024
HD Live streaming from Space Station
objects crossing your sky now

ARIANE 5 R/B

Track ARIANE 5 R/B now!


NORAD ID: 27462
Int'l Code: 2002-035C
Perigee: 641.7 km
Apogee: 36,157.3 km
Inclination: 5.9 °
Period: 646.6 minutes
Semi major axis: 24770 km
RCS: 26.2715 m2 (large)
Launch date: July 5, 2002
Source: France (FR)
Launch site: FRENCH GUIANA (FRGUI)

Note: This is a ROCKET BODY
Your satellite tracking list
Your tracking list is empty




NASA's NSSDC Master Catalog

Two Line Element Set (TLE):
1 27462U 02035C   24251.91021716 -.00000119  00000-0 -17277-3 0  9992
2 27462   5.8836 344.5514 7168922 316.4210 245.3706  2.22690234180490
Source of the keplerian elements: AFSPC